CAPE
1716 1776 1882 1938 1688 1501 1410 1441 1474 1369 1329 1246 1184 1090 1115 1066 972 1080 1305 1414 1472 1496 1425 1330 1438 1384 1333 1304 1296 1344 1182 987 1031 961 927 929 929 760 657 685 716 616 570 523 479 597 432 467 542 641 797 797 705 628 506 358 278 305 404 240 185 166 154 114 86 58 68 82 402 650 640 652 695 499 436 650 643 722 796 700 685 738 890 1045 1099
1695 1753 1706 1710 1577 1413 1304 1390 1367 1320 1296 1183 1300 1161 1138 1088 956 1022 1072 1154 1242 1265 1294 1338 1309 1322 1438 1446 1287 1191 1135 1076 1037 1007 975 849 757 626 508 722 725 620 497 414 420 566 610 819 934 907 803 648 656 583 346 506 579 616 642 675 518 328 192 98 36 37 53 101 282 574 666 600 588 586 533 692 657 712 701 737 694 800 870 1083 1159
1781 1735 1685 1591 1553 1492 1343 1466 1456 1358 1326 1414 1381 1170 998 799 844 916 1118 1226 1237 1271 1320 1365 1280 1211 1182 1267 1228 1172 1192 1124 1090 965 896 878 830 794 796 718 591 577 746 889 1022 923 1052 1031 821 681 807 984 784 665 672 643 655 592 620 696 584 375 319 285 272 234 239 334 340 297 468 701 658 630 684 627 538 710 678 663 585 714 903 889 890
1742 1723 1654 1625 1592 1535 1457 1476 1534 1519 1429 1356 1296 1198 1275 1068 984 965 1061 1134 1223 1289 1334 1373 1337 1252 1300 1338 1414 1428 1420 1337 1283 1112 1096 1023 1115 1112 1072 939 1002 984 1094 825 998 1250 1262 1348 1475 1342 1089 957 996 957 896 775 761 671 682 717 405 289 250 218 124 181 316 327 274 139 148 18 316 497 494 470 437 463 494 555 490 605 686 730 789
1720 1670 1538 1535 1517 1455 1433 1500 1507 1427 1338 1272 1253 1212 1146 1054 956 939 1011 1093 1335 1282 1316 1323 1295 1272 1287 1394 1420 1430 1555 1684 1706 1678 1370 1235 1314 1290 965 754 922 1097 892 884 1134 1200 1250 1250 1244 1241 1352 1439 1277 1185 1073 873 773 905 1023 1000 736 530 359 239 208 246 374 362 289 57 0 0 50 305 345 374 346 335 359 405 404 501 582 642 666
1694 1555 1438 1448 1335 1435 1436 1524 1520 1363 1302 1257 1264 1075 1058 1295 1282 1043 944 935 1181 1242 1326 1412 1371 1380 1340 1306 1364 1445 1472 1513 1567 1566 1455 1339 1228 714 754 796 681 606 886 1111 972 1118 1327 1559 1483 1398 1372 1405 1382 1346 1251 1156 948 870 967 1320 1224 611 478 329 219 356 397 294 146 4 0 10 18 97 216 244 237 227 244 175 263 254 454 442 578
1684 1553 1352 1291 1318 1452 1612 1585 1460 1320 1286 1238 1130 1286 1367 1234 931 1215 1332 980 886 1156 1342 1347 1366 1416 1375 1347 1243 1202 1281 1463 1490 1437 1362 1356 1264 1084 846 744 882 978 908 760 962 1133 1425 1509 1551 1617 1478 1377 1342 1364 1218 1244 1218 1248 1212 1254 1071 704 570 336 322 409 266 23 0 0 0 0 22 42 88 115 120 110 131 183 198 488 663 455 484
1723 1506 1282 1301 1380 1378 1630 1607 1524 1307 1309 1322 1238 1353 1464 1311 1319 1408 1534 1199 902 922 1122 1405 1239 1284 1257 1213 1272 1424 1438 1467 1488 1424 1330 1272 1196 1137 1000 971 982 876 555 814 1138 1119 1240 1550 1484 1577 1501 1357 1374 1335 1201 1158 1214 1151 1051 1138 1236 597 454 385 463 309 161 0 0 0 2 87 111 138 186 179 164 126 100 91 365 253 360 439 399
1691 1419 1268 1255 1250 1740 1634 1555 1476 1353 1477 1292 1059 1232 1395 1402 1514 1505 1455 1410 1215 1237 1397 1497 1340 1328 1220 1212 1382 1513 1658 1662 1616 1505 1285 1106 1453 1364 1202 999 933 796 820 930 946 979 1102 1350 1411 1457 1423 1274 1210 1151 1125 1185 1243 1209 1274 1384 1313 751 617 541 377 200 50 1 0 0 0 0 0 3 28 35 96 131 110 268 298 279 289 312 154
1583 1321 1150 1153 1447 1755 1621 1475 1455 1386 1444 1126 1086 1151 1449 1523 1477 1511 1494 1370 1340 1363 1426 1462 1334 1161 1146 1393 1646 1626 1517 1612 1199 1206 1196 1735 1802 1377 1154 1043 990 898 809 812 909 956 1231 1377 1425 1324 1264 1156 1252 1262 1428 1438 1450 1445 1466 1571 1439 794 633 440 322 240 24 12 1 46 208 125 2 26 122 98 86 40 41 52 423 144 164 195 172
1517 1243 1115 1260 1524 1686 1555 1522 1519 1402 1313 1183 1143 1235 1534 1420 1338 1262 1211 1297 1342 1353 1424 1397 1169 1108 1213 1394 1679 1908 1956 1924 1888 1881 2338 2188 2133 1504 1147 1248 1246 1116 954 871 944 1108 1221 1166 1118 1137 1144 1320 1429 1387 1428 1503 1531 1414 1559 1666 1326 658 515 404 231 97 104 31 8 183 540 367 41 80 228 179 182 141 143 76 74 73 51 68 103
1474 1202 1188 1334 1650 1678 1617 1609 1524 1374 1137 1181 1242 1485 1419 1088 1030 1176 1112 1170 1331 1335 1436 1384 1327 1312 1298 1387 1746 1828 1977 2204 2119 2092 2152 2145 1981 1729 1532 1404 1255 1187 1089 990 973 1035 1138 1099 1112 1268 1349 1412 1454 1427 1471 1533 1416 1458 1671 1603 912 590 529 395 157 161 118 135 179 36 47 200 246 266 217 203 196 129 100 103 122 126 145 110 126
1474 1326 1276 1468 1571 1738 1668 1635 1642 1520 1506 1607 1534 1480 1157 1095 1074 1094 1153 1414 1534 1472 1505 1492 1524 1462 1472 1565 1659 1678 1754 1988 2121 2099 2044 2060 1926 1757 1524 1371 1288 1213 1129 1074 1104 1187 1247 1189 1266 1324 1408 1368 1385 1471 1484 1585 1238 1164 1226 962 754 679 650 517 257 260 248 123 62 17 5 36 113 183 163 98 48 201 320 347 300 242 205 209 182
1551 1458 1408 1395 1523 1850 1726 1660 1777 1793 1857 1750 1567 1464 1435 1440 1440 1414 1447 1507 1597 1674 1651 1606 1660 1640 1652 1716 1694 1714 1726 1856 2028 2143 2030 1913 1818 1744 1594 1391 1336 1309 1217 1189 1201 1243 1270 1344 1335 1341 1394 1482 1489 1427 1477 1642 1174 951 974 883 820 853 785 670 550 383 325 197 208 21 30 139 145 168 158 166 165 139 71 31 19 11 4 6 27
1591 1577 1394 1484 1712 1701 1913 1797 1886 1886 1810 1663 1511 1590 1654 1671 1665 1633 1591 1628 1735 1792 1773 1715 1606 1657 1611 1519 1608 1706 1744 1789 1851 1935 2037 1985 1876 1819 1678 1562 1436 1305 1162 1063 1143 1227 1278 1248 1324 1309 1317 1338 1450 1498 1545 1652 1316 956 1051 1029 1021 943 788 543 452 352 290 312 220 18 15 101 174 117 190 149 135 92 54 52 33 39 70 33 7
1678 1584 1554 1544 1586 1628 1747 1887 1847 1811 1812 1790 1685 1741 1807 1793 1802 1792 1748 1745 1742 1743 1793 1792 1664 1572 1584 1632 1598 1651 1674 1694 1732 1723 1825 1809 1695 1507 1433 1370 1331 1380 1250 1106 1031 1030 1245 1294 1342 1381 1386 1430 1475 1489 1590 1656 1610 1160 1218 1201 1068 913 788 528 381 303 252 157 168 249 117 183 153 162 172 161 151 197 179 84 44 50 40 52 31
1770 1700 1594 1552 1532 1469 1510 1629 1769 1980 1958 1910 1798 1812 1813 1821 1849 1826 1774 1775 1755 1725 1777 1709 1707 1594 1597 1680 1617 1603 1626 1656 1685 1648 1620 1570 1545 1508 1545 1544 1506 1461 1254 1185 1149 1161 1254 1324 1308 1347 1309 1401 1417 1458 1495 1697 1724 1332 1216 1180 1063 994 851 458 351 288 204 348 361 261 257 226 228 273 242 232 213 131 109 102 86 110 79 30 45
1871 1750 1664 1570 1448 1426 1426 1570 1774 1657 1802 1824 1930 1839 1808 1798 1799 1842 1800 1790 1840 1794 1706 1796 1760 1611 1711 1706 1645 1673 1680 1650 1652 1681 1627 1632 1605 1524 1544 1525 1414 1280 1201 1196 1212 1201 1252 1252 1252 1332 1362 1358 1430 1436 1504 1814 1690 1346 1184 1146 1073 1004 798 454 349 274 341 528 306 441 370 276 195 176 204 223 192 158 169 138 105 80 42 43 15
1772 1775 1735 1590 1487 1420 1453 1484 1620 1728 1693 1677 1642 1869 1861 1796 1863 1908 1896 1888 1832 1816 1823 1785 1529 1634 1728 1658 1707 1716 1696 1613 1776 1769 1628 1644 1546 1556 1472 1411 1338 1148 1139 1182 1150 1140 1131 1174 1222 1266 1309 1287 1363 1456 1638 1725 1635 1348 1104 1086 1075 940 741 374 311 351 442 320 321 379 352 361 275 214 250 278 219 165 168 184 157 54 27 58 52
1764 1740 1710 1607 1448 1418 1456 1433 1544 1619 1585 1602 1578 1599 1727 1967 1948 1975 1946 1874 1902 1846 1866 1758 1703 1576 1530 1347 1266 1465 1317 1571 1674 1661 1720 1564 1586 1488 1434 1341 1133 1125 1104 1094 1111 1073 1092 1124 1102 1093 1180 1134 1087 1063 1418 1744 1781 1342 1178 1157 1084 995 320 315 342 363 318 399 402 482 420 219 206 230 249 250 222 252 244 216 180 177 105 71 52
1654 1703 1728 1552 1448 1471 1462 1416 1466 1570 1591 1587 1544 1501 1799 1998 1915 2020 1940 1994 1993 2016 1861 1825 1469 1316 1299 1337 1361 1277 1284 1247 1498 1478 1600 1615 1557 1625 1475 1421 1270 1171 1197 1156 1109 1171 1088 1126 1064 1025 1086 1009 892 1025 1326 1675 1659 1334 1205 1197 1024 351 268 332 357 347 324 620 537 596 715 647 515 365 362 362 290 257 212 175 136 136 188 153 137
1663 1558 1593 1488 1571 1539 1619 1498 1455 1566 1593 1557 1518 1489 1609 1758 1800 1844 1827 1883 1736 1547 1475 1486 1463 1229 1241 1322 1286 1359 1342 1406 1493 1620 1404 1575 1456 1519 1448 1433 1356 1313 1257 1112 1029 995 1044 1048 993 1058 935 836 535 424 666 1567 1548 1289 1234 1063 411 291 266 338 323 315 428 378 538 865 686 756 573 486 527 610 434 316 285 226 176 163 178 198 162
1444 1600 1564 1725 1626 1595 1576 1540 1485 1540 1546 1519 1529 1526 1526 1643 1750 1715 1630 1427 1523 1526 1504 1505 1367 1280 1320 1342 1239 1220 1407 1403 1427 1461 1453 1361 1489 1479 1508 1430 1398 1290 1129 1049 966 978 955 936 869 898 672 433 401 422 441 999 1347 1431 1164 473 377 290 261 305 307 348 352 412 477 882 846 625 660 644 553 587 720 613 463 393 328 276 201 222 141
1549 1734 1702 1733 1674 1608 1574 1549 1527 1470 1443 1503 1463 1473 1494 1592 1674 1629 1350 1260 1344 1480 1468 1436 1357 1329 1219 1188 1278 1187 1260 1281 1449 1620 1613 1364 1375 1445 1370 1279 1155 1029 1001 944 938 926 880 775 577 379 25 411 332 397 460 743 1052 939 516 473 357 274 254 285 334 360 373 913 608 866 1038 815 463 534 632 827 814 679 553 398 321 209 174 180 179
1317 1616 1638 1709 1640 1556 1543 1570 1490 1431 1415 1434 1486 1443 1450 1500 1550 1472 1290 1334 1475 1458 1444 1408 1309 1294 1297 1316 1354 1220 1294 1425 1303 1226 1197 1219 1200 1065 976 932 931 915 736 711 507 26 59 0 0 0 0 0 168 390 468 477 689 649 524 470 327 240 221 292 341 359 436 584 626 1332 1348 932 561 602 1056 1149 1046 885 543 373 290 249 137 81 84
1220 1450 1646 1675 1621 1493 1492 1548 1387 1410 1420 1382 1372 1388 1414 1394 1437 1385 1362 1392 1398 1358 1444 1474 1447 1406 1393 1363 1288 1222 1372 1409 1301 1200 1150 1116 1092 1030 931 894 620 330 216 214 288 212 292 106 0 0 0 0 0 352 424 423 527 525 504 424 268 211 247 270 283 371 441 462 1027 1262 1215 863 926 1076 1208 1250 1174 702 490 441 331 222 156 133 140
1271 1288 1547 1665 1581 1471 1411 1454 1310 1393 1326 1256 1299 1374 1361 1309 1296 1306 1305 1317 1270 1306 1346 1366 1373 1392 1402 1309 1259 1264 1332 1345 1206 1130 1078 1082 1071 955 736 463 216 276 408 400 398 375 331 263 41 0 0 0 0 174 290 400 522 548 490 368 238 208 217 247 323 406 457 629 1193 1262 1308 1420 1644 1331 1244 1268 1028 721 594 561 423 271 230 193 159
1318 1324 1541 1692 1575 1404 1378 1400 1265 1338 1237 1159 1191 1316 1325 1268 1234 1164 1103 1187 1218 1242 1353 1379 1349 1341 1334 1264 1253 1271 1308 1230 1076 1082 1050 998 1022 874 717 595 438 491 392 377 386 368 337 249 0 0 0 0 0 87 263 378 526 520 487 314 281 235 246 277 378 426 467 429 674 1360 1501 1515 1559 1297 1276 1207 1029 757 449 370 506 299 287 197 136
1401 1356 1453 1708 1583 1400 1374 1327 1225 1267 1228 1164 1108 1195 1197 1180 1090 1045 1071 1233 1282 1344 1365 1383 1358 1266 1236 1213 1169 1237 1255 1129 947 983 947 873 893 808 684 555 476 469 374 434 397 362 319 229 0 0 0 0 0 0 2 122 400 448 476 431 344 317 318 391 402 372 325 368 547 1325 1448 1621 1565 1358 1234 952 592 382 292 481 567 621 267 121 117
1479 1372 1382 1644 1562 1438 1343 1287 1232 1236 1184 1150 1176 1206 1138 1050 1039 1047 1016 819 930 1107 1264 1263 1236 1184 1152 1152 1102 1164 1164 1016 846 908 842 772 786 701 624 575 592 467 459 493 484 312 27 0 0 0 0 0 6 264 350 10 14 323 510 538 445 388 349 420 375 369 397 484 608 1074 1253 1180 1291 1212 982 617 357 241 237 887 772 644 263 187 123
1586 1363 1268 1529 1555 1488 1389 1349 1287 1267 1118 1012 1070 1116 1071 1045 1017 871 535 184 378 431 1050 1206 1166 1097 1071 1117 1157 1148 1139 868 741 731 655 657 607 627 646 699 682 454 457 450 425 0 0 241 0 0 0 0 1 244 269 37 33 392 541 513 418 394 466 437 421 409 471 498 472 542 1244 1403 1255 1371 1218 923 547 373 226 726 965 654 433 332 325
1552 1432 1213 1242 1416 1425 1467 1299 1345 1242 1088 881 964 925 810 739 769 543 314 147 227 543 832 1206 1145 1091 1066 1067 1136 1236 1186 906 662 626 632 618 630 667 732 702 678 655 612 571 375 0 0 0 0 0 0 0 0 369 405 415 419 468 514 478 437 471 503 480 452 481 493 493 474 509 620 912 1651 1658 1680 1764 1440 512 258 433 832 820 529 425 486
1403 1344 1332 1107 1089 1274 1379 1266 1286 1182 987 806 776 560 339 516 614 624 273 162 408 633 962 1041 927 945 955 1038 1125 1062 933 807 679 660 696 758 786 831 811 722 656 586 560 469 53 0 1 0 173 172 0 0 37 352 390 424 436 448 470 428 430 511 542 558 484 510 495 501 507 523 554 603 696 1124 1484 1653 1473 1548 1256 1140 574 559 817 746 625
1255 1371 1297 1186 1024 1124 1273 1231 1198 1092 908 681 602 392 184 418 628 700 507 428 579 768 934 819 464 680 880 1083 1010 887 804 772 758 747 744 742 729 707 680 622 528 494 418 347 86 0 0 0 230 242 220 77 194 336 377 388 405 406 441 420 423 480 772 546 530 409 477 502 544 574 601 643 663 658 787 1182 1000 692 758 808 799 761 660 572 437
1240 1328 1329 1222 1073 1090 1163 1166 1104 937 806 667 470 379 280 421 688 756 574 609 720 820 822 708 427 590 708 825 807 807 816 812 772 753 719 686 634 563 536 534 639 682 549 465 494 35 0 76 225 254 231 103 40 286 296 296 336 382 434 388 320 392 555 441 398 509 506 497 547 605 645 688 656 586 694 709 679 660 807 641 667 745 538 380 532
1354 1326 1346 1251 1114 1005 1060 1050 998 922 829 646 493 457 298 29 583 777 749 849 991 864 796 418 533 636 737 986 1016 897 845 838 833 797 783 693 599 511 522 594 721 853 692 585 506 355 0 0 80 170 162 74 17 8 294 294 305 380 374 366 384 302 279 290 432 488 471 494 491 572 605 654 608 645 688 709 554 715 726 638 751 597 436 355 441
1389 1363 1341 1232 1066 965 967 1003 970 819 662 605 533 476 361 200 489 692 758 822 983 905 555 523 564 693 766 961 1252 1328 1166 1075 974 929 809 675 452 417 462 676 962 993 659 581 485 428 375 226 7 122 162 24 200 117 290 351 366 304 0 193 215 232 264 254 398 450 424 434 431 442 558 704 750 466 520 499 358 298 674 936 866 743 606 453 432
1488 1437 1407 1223 1067 934 1024 1001 972 836 749 694 615 460 384 388 527 708 789 859 977 890 532 601 728 792 804 884 1096 1247 1322 1270 1145 985 768 494 372 395 466 839 990 818 482 468 473 418 312 222 202 165 95 74 121 230 280 323 378 308 187 354 152 286 261 249 177 151 186 133 127 129 312 421 370 352 402 288 172 128 189 174 134 262 292 504 742
1566 1537 1514 1250 1109 1000 1008 930 939 934 792 686 562 418 388 409 499 619 700 700 831 841 585 690 779 807 809 988 1058 1173 1227 1175 1121 977 739 580 479 546 596 883 700 502 409 430 469 425 312 19 2 152 44 67 116 233 273 277 333 414 488 414 372 316 303 306 280 233 254 251 441 89 39 210 260 217 241 279 226 257 201 157 27 23 45 54 127
1620 1561 1467 1307 1169 1151 1002 1029 1023 1048 923 770 541 456 401 396 426 495 440 517 678 738 535 641 768 876 878 978 1114 1184 1179 1070 1017 964 806 629 558 764 850 707 598 539 446 439 469 454 155 0 240 274 255 214 190 257 260 271 314 313 340 341 397 472 465 378 295 284 336 349 416 374 312 237 207 193 255 249 295 239 249 292 279 203 203 194 141
1603 1538 1388 1276 1238 1121 1064 1075 1137 1036 920 807 561 548 473 454 402 422 260 306 442 566 571 732 896 877 870 954 1055 1150 1064 954 965 910 842 738 708 911 904 692 629 565 504 460 498 468 346 258 301 321 278 262 272 310 348 243 364 366 330 257 230 182 197 72 24 1 0 202 324 211 254 306 321 328 349 382 137 80 150 294 275 230 220 130 0
1499 1381 1280 1182 1170 1065 1112 1142 1085 926 872 774 662 588 661 625 423 379 252 282 504 576 672 826 878 863 1113 1249 1243 1138 958 882 829 881 838 842 904 990 859 775 675 616 577 521 530 487 421 353 366 333 259 266 274 386 449 489 365 297 265 207 184 185 223 249 304 279 0 0 0 49 251 281 305 357 303 188 159 202 96 0 0 89 44 0 0
1376 1352 1213 1002 1105 995 1095 1148 999 1049 844 681 638 666 730 693 452 428 521 518 658 751 840 968 953 1113 1308 1315 1193 1021 1038 995 918 885 927 830 884 748 933 840 707 697 664 565 573 518 518 402 414 322 289 278 317 406 488 441 316 278 264 221 35 62 0 60 186 248 0 0 0 8 23 39 28 60 115 137 180 123 95 20 0 0 0 0 0
1386 1356 1154 1039 1088 1036 1077 986 964 1034 831 832 763 762 844 697 570 621 731 708 817 1085 1183 1292 1273 1284 1374 1300 1256 1102 1078 1092 1072 1033 1009 1001 917 920 890 810 780 723 722 603 612 564 547 387 441 371 325 313 361 420 444 371 298 289 106 80 0 0 0 0 0 0 0 0 0 1 7 16 32 100 210 251 183 71 7 0 0 0 0 0 0
1380 1244 1047 1073 1076 1133 999 809 1011 955 920 896 912 872 760 760 803 873 1063 1071 1021 1151 1247 1098 1013 1133 1195 1180 1193 1319 1274 1223 1114 1072 1082 973 851 912 812 696 742 725 731 629 652 605 516 440 502 457 379 343 373 382 373 344 365 270 182 0 0 7 0 0 0 0 0 0 0 6 15 6 34 100 195 156 79 0 0 0 0 0 0 0 0
1350 1124 1011 1032 1048 1105 977 519 976 932 1042 896 787 804 877 912 933 971 1051 970 945 1037 934 732 815 971 1058 1155 1254 1327 1326 1214 1103 1060 999 998 1040 952 672 559 687 771 741 668 714 656 518 392 576 551 453 413 420 468 464 413 415 143 70 0 0 49 0 0 0 0 0 0 0 0 0 0 1 5 9 8 17 0 0 0 0 0 0 0 0
1231 1040 989 1130 1028 1046 1040 622 798 868 910 934 859 948 1006 1037 1046 964 903 811 765 773 752 814 974 1098 1184 1167 1240 1244 1206 1076 1032 1062 991 996 1009 918 693 709 800 886 806 793 825 738 655 552 536 596 529 496 482 521 497 443 446 271 0 0 0 0 0 0 0 0 0 25 41 0 0 1 2 46 140 3 0 0 0 0 0 0 0 0 0
1149 1028 1013 1124 1130 1085 1068 866 874 880 970 1022 984 1067 1116 1123 1111 1033 884 679 635 704 853 1020 1117 1146 1168 1102 1113 1123 1118 1087 1101 1024 844 656 615 707 670 827 832 1096 930 981 927 858 780 660 510 475 446 449 488 491 557 452 475 416 491 196 0 0 0 0 0 0 0 0 4 0 42 59 138 77 13 0 0 0 0 0 0 0 0 0 0
1090 974 960 1010 1082 1066 1017 938 996 1060 1109 1088 1120 1212 1199 1193 1192 1011 733 640 689 832 1003 1086 1082 1072 1149 1013 1004 995 945 923 849 776 622 534 542 594 777 914 968 1106 1000 960 892 895 856 757 577 500 544 516 500 468 451 472 445 423 407 0 0 0 0 0 0 0 0 0 12 4 7 22 0 0 0 0 0 0 0 0 0 0 0 0 0
1091 931 864 898 967 937 933 965 1043 1030 1052 1156 1314 1408 1333 1256 1064 750 630 722 827 962 1044 1044 998 862 744 682 626 624 560 528 523 524 507 467 462 498 565 684 828 1012 1067 956 1042 921 880 955 888 724 682 650 619 630 600 508 413 382 16 338 312 0 0 0 0 0 0 0 4 0 6 16 5 0 0 0 0 0 0 0 0 0 0 0 0
1109 976 920 889 928 1039 1042 1015 1020 1028 1167 1317 1478 1496 1394 1187 788 599 689 856 962 987 1004 950 738 576 440 385 245 72 0 0 0 383 410 459 487 494 479 555 695 896 1060 1121 1001 1017 1036 964 993 952 809 714 594 638 647 620 518 437 402 376 347 43 0 0 0 0 0 0 0 0 0 0 0 0 5 0 0 0 0 0 0 0 0 0 0
Wind_Speed
27 32 28 30 31 36 40 41 43 44 46 46 46 44 39 35 36 38 37 37 37 36 36 36 35 35 34 34 34 35 35 35 35 34 33 32 31 31 31 30 29 27 26 27 27 27 27 27 27 26 26 27 28 28 28 28 26 26 24 23 20 19 17 17 nan nan nan nan 21 21 21 20 20 20 20 21 21 21 20 19 14 9 4 8 15
31 30 28 27 34 37 41 43 45 46 47 48 47 45 40 38 36 36 38 39 38 36 35 34 34 34 33 33 35 35 35 35 35 34 33 32 30 29 28 29 28 28 27 27 28 28 27 26 26 26 27 28 28 28 29 28 28 26 24 22 20 18 17 nan nan nan nan 17 17 21 22 21 21 20 20 21 21 21 19 18 16 9 5 14 14
33 31 27 30 37 40 43 46 47 48 48 49 48 46 43 41 40 39 38 36 34 33 32 31 33 34 33 34 34 34 34 35 34 33 32 31 29 30 28 27 26 27 28 27 27 26 26 26 26 28 28 27 28 27 28 28 28 26 25 23 20 18 17 15 15 14 14 16 17 17 16 19 21 20 20 20 21 20 19 18 17 12 10 14 13
32 29 28 32 40 42 46 48 49 49 49 50 49 48 45 42 42 40 39 37 35 33 32 31 32 33 33 33 34 34 34 34 34 33 31 29 28 29 28 27 27 27 28 27 26 26 25 26 26 27 27 28 28 27 27 27 27 26 25 23 20 19 16 15 14 13 14 16 16 14 9 nan 14 20 19 19 20 20 19 19 18 17 16 16 15
29 28 29 30 34 42 47 49 50 49 50 52 50 48 46 44 41 41 39 37 35 34 34 31 31 32 33 34 34 34 34 34 34 33 31 29 28 29 28 27 27 27 28 27 26 25 25 25 26 26 26 27 28 28 27 27 28 27 25 22 20 17 16 14 14 13 14 15 15 nan nan nan nan 17 17 19 19 19 19 19 18 17 15 15 16
28 29 30 32 35 40 49 49 50 50 51 52 49 47 45 43 42 40 37 37 36 34 33 31 32 31 31 32 33 33 33 33 34 33 31 29 27 28 29 28 27 27 28 27 26 26 25 25 25 26 27 27 28 27 26 26 26 25 21 19 18 17 15 13 12 11 12 14 12 nan nan nan nan nan 16 17 18 17 16 17 17 14 14 15 15
32 31 33 35 36 41 49 51 52 52 52 51 48 45 44 42 43 41 38 37 36 35 34 32 32 31 31 31 32 32 32 32 33 31 30 28 28 28 29 29 27 25 26 27 25 25 25 24 25 26 26 27 27 27 25 24 23 21 18 17 17 17 15 12 12 11 12 nan nan nan nan nan nan nan nan 14 15 16 17 16 16 17 18 16 15
33 34 35 37 37 44 50 52 53 54 53 50 47 44 42 41 41 40 38 38 36 35 35 33 31 32 31 32 33 32 32 31 31 31 30 28 28 28 29 29 27 26 26 26 26 25 24 23 23 25 26 26 27 27 24 22 22 20 18 18 18 17 16 13 12 10 10 nan nan nan nan nan 10 10 15 17 17 16 nan nan 19 15 16 16 15
34 36 37 38 40 50 51 53 54 56 54 49 46 43 41 40 39 39 39 37 35 33 34 34 32 32 31 32 32 31 31 32 31 30 29 29 27 28 29 29 27 24 22 22 23 23 23 22 22 23 24 25 26 25 22 19 18 17 17 18 18 18 16 14 12 10 nan nan nan nan nan nan nan nan nan nan nan 18 19 17 16 17 17 16 15
36 37 38 39 42 51 52 54 54 56 53 49 44 43 41 40 39 38 37 37 36 35 35 34 35 33 33 31 31 32 31 29 29 30 28 25 25 30 30 29 28 26 23 24 24 24 22 21 20 21 22 22 24 23 20 17 16 17 17 18 19 19 17 15 13 8 nan nan nan nan 8 10 nan nan 16 nan nan nan nan nan 14 14 15 16 16
38 38 39 41 45 51 52 53 53 53 50 45 43 42 41 40 39 38 38 37 35 35 35 34 34 33 32 33 33 32 30 29 28 28 28 29 29 30 31 31 28 27 26 25 24 24 23 21 20 20 21 21 22 22 21 19 17 18 19 21 21 19 16 14 10 nan 5 nan nan 7 9 11 nan nan 17 19 19 19 17 nan nan nan nan nan 16
39 39 40 41 48 51 52 52 51 49 46 42 42 42 41 41 39 38 38 38 35 34 33 32 32 32 33 34 34 33 33 31 29 29 30 30 32 32 32 31 28 27 28 27 26 26 26 23 21 20 19 19 20 21 22 21 19 21 24 23 21 19 17 14 7 6 6 7 8 nan nan 9 8 12 16 18 18 18 19 20 20 19 18 18 17
41 41 41 43 45 49 50 51 49 46 42 41 41 42 42 40 39 39 38 36 34 32 32 29 29 30 32 34 35 34 33 32 31 30 30 31 31 31 31 30 28 28 29 30 30 28 28 26 23 20 18 18 20 21 23 23 22 22 23 23 21 20 17 14 7 7 6 7 nan nan nan nan 6 14 15 nan nan 18 18 19 20 20 19 19 19
42 42 42 43 43 49 50 48 45 42 40 40 40 41 41 39 40 39 37 35 33 32 30 29 28 29 31 33 34 33 32 31 31 29 30 31 31 31 29 28 28 29 30 31 32 31 30 28 24 21 18 17 19 22 24 24 24 24 23 22 21 20 18 13 9 8 7 7 7 nan nan 6 7 14 15 16 16 16 nan nan nan nan nan nan nan
43 43 42 42 42 43 49 43 39 39 39 39 39 39 39 39 40 39 37 35 33 31 30 29 29 30 32 34 34 34 32 30 30 29 30 31 31 30 29 28 29 29 30 31 33 34 32 31 26 21 19 17 18 21 22 23 25 24 23 21 20 19 17 9 8 8 8 7 7 nan nan 8 12 13 14 15 15 nan nan nan nan nan nan nan nan
41 41 41 40 39 39 37 38 37 37 38 39 38 38 39 40 40 38 36 34 33 31 30 30 30 31 33 33 34 33 32 31 30 29 28 29 30 29 27 27 29 30 32 31 32 34 32 32 31 25 20 18 18 21 23 24 24 24 23 20 20 19 17 11 10 9 8 8 8 9 11 10 14 14 14 14 13 14 15 nan nan nan nan nan nan
40 40 39 38 35 33 31 32 33 38 37 37 38 38 38 39 38 36 35 33 32 31 31 31 30 31 32 33 33 32 32 31 29 28 28 28 28 29 28 27 27 31 33 34 34 32 30 32 35 30 22 18 18 21 24 24 23 24 23 21 20 18 17 14 10 9 8 8 8 9 9 9 12 15 15 15 15 14 14 15 nan 17 nan nan nan
39 37 35 33 31 29 29 30 30 30 30 33 36 37 37 37 37 35 34 33 33 32 32 31 30 31 31 31 31 31 31 31 30 29 29 27 27 29 29 28 28 30 33 34 33 30 29 31 35 32 24 18 17 20 23 24 24 23 22 21 20 19 17 14 11 10 9 8 9 9 10 12 15 16 16 15 14 14 14 14 15 nan nan nan nan
36 33 31 30 29 28 28 28 28 27 28 28 29 33 36 37 36 35 34 34 33 33 32 30 29 29 31 30 30 32 33 33 32 30 29 28 27 28 28 28 28 29 32 32 30 28 28 29 31 30 25 18 16 18 22 23 24 23 23 21 21 19 18 13 11 11 11 10 9 10 10 13 14 16 17 17 15 14 14 14 15 nan nan nan nan
33 30 29 28 29 29 28 28 27 28 28 29 30 30 34 36 37 35 34 34 33 32 30 29 28 29 30 30 31 30 32 31 33 28 29 29 27 25 27 27 26 27 28 29 27 26 26 28 30 28 24 19 14 16 20 22 24 25 23 21 20 20 14 12 12 12 11 10 10 10 13 16 16 16 17 17 16 16 15 15 15 15 15 nan nan
30 29 28 29 29 29 28 27 27 29 29 29 29 30 31 36 35 35 34 34 32 31 28 29 30 29 28 30 29 28 26 25 26 24 29 25 26 26 28 28 27 26 27 26 26 26 25 27 30 28 24 18 13 14 19 21 23 25 23 21 20 17 14 13 12 11 11 11 12 9 14 15 17 18 18 18 17 17 16 16 16 16 15 16 17
32 32 30 28 27 27 27 27 28 29 28 28 27 29 30 33 31 30 29 29 29 28 27 26 27 24 28 28 27 26 25 24 24 27 25 27 26 28 28 28 28 29 29 29 26 25 24 26 29 27 23 17 13 11 14 19 22 23 23 22 17 15 15 14 13 12 12 12 12 13 17 16 17 18 18 18 19 18 18 18 18 18 18 18 18
33 32 29 29 27 27 27 28 29 28 29 28 28 29 31 30 31 30 28 28 27 26 24 26 25 25 27 27 27 26 24 26 25 26 27 30 27 30 29 28 28 30 30 29 25 23 24 27 28 25 21 17 13 12 14 17 18 22 22 19 16 16 16 15 14 13 12 12 14 14 16 17 18 18 18 20 20 19 19 19 20 21 21 20 20
27 26 27 26 28 28 28 29 29 29 29 27 28 30 30 30 30 29 28 26 25 25 25 25 26 26 26 27 27 27 25 27 28 31 30 26 26 30 30 30 29 28 26 22 24 25 26 27 26 22 nan 12 13 13 15 18 19 21 20 18 18 18 17 16 15 13 12 12 12 15 16 16 19 18 19 20 21 20 20 21 23 23 23 22 22
25 24 24 26 29 29 28 28 28 29 29 27 29 29 30 30 29 29 27 26 25 25 25 25 25 27 27 26 27 27 26 26 26 24 26 26 24 24 25 24 23 22 21 21 23 nan nan nan nan nan nan nan 14 13 16 19 20 21 21 20 20 20 18 16 16 15 13 14 14 16 16 17 17 18 21 20 22 22 23 23 24 25 24 nan nan
25 26 26 27 30 30 29 28 30 29 28 27 29 30 31 29 29 28 26 24 24 25 25 25 26 26 26 26 27 28 27 26 25 25 25 25 24 23 24 23 22 21 22 26 25 22 20 19 nan nan nan nan nan 13 15 18 20 21 21 21 21 21 19 17 16 16 17 18 18 20 18 17 17 23 20 22 23 24 25 25 25 25 24 25 25
22 21 22 22 26 27 28 28 29 28 28 29 29 28 29 28 27 27 26 25 24 25 25 24 25 24 24 26 28 27 27 27 27 26 25 23 22 22 23 23 24 24 24 26 24 20 19 19 nan nan nan nan nan 14 16 18 19 20 21 21 20 20 19 17 16 18 19 20 20 23 21 20 24 24 21 21 24 24 25 25 25 24 24 25 25
21 22 20 21 23 24 25 26 26 27 28 29 29 28 27 27 25 25 24 25 25 23 23 22 24 23 23 25 26 25 26 27 26 26 24 22 21 22 22 22 22 23 21 20 19 17 17 18 nan nan nan nan nan nan 15 17 17 17 19 20 20 20 18 18 19 21 21 22 22 25 26 26 25 24 22 23 23 23 23 25 24 25 25 26 27
21 22 20 19 23 24 24 25 27 29 28 27 27 25 25 24 23 23 22 24 23 22 20 21 22 22 23 24 25 26 26 26 25 24 23 23 23 23 21 19 18 17 16 15 14 16 18 19 nan nan nan nan nan nan nan 16 15 14 17 18 19 19 18 19 21 22 22 22 24 25 28 26 24 22 21 23 23 22 21 24 25 26 27 27 28
20 26 24 20 22 22 23 25 26 27 27 26 24 24 23 22 21 21 21 23 22 18 19 20 21 23 23 23 25 24 24 24 23 23 24 25 24 22 18 16 14 13 12 13 12 15 nan nan nan nan nan nan nan 16 16 nan nan 13 15 17 17 17 17 19 21 22 22 23 23 23 27 24 21 19 21 23 22 22 23 25 24 26 27 28 29
22 25 25 22 20 19 19 21 22 23 23 23 22 23 22 21 20 20 21 21 20 14 14 17 20 23 23 24 24 23 23 23 23 23 24 24 21 18 14 14 13 10 9 11 12 nan nan 19 nan nan nan nan nan 16 16 nan nan 14 15 16 15 15 17 19 20 21 22 21 21 21 22 23 21 20 20 20 21 21 23 24 25 25 27 27 28
20 22 23 20 15 14 16 19 20 21 21 20 20 21 20 19 19 19 19 19 16 13 13 16 22 23 22 23 22 22 23 22 21 21 22 20 17 14 13 13 11 9 9 11 14 nan nan nan nan nan nan nan nan 16 14 15 16 15 15 16 14 15 16 18 18 19 20 20 20 20 20 20 23 25 26 25 20 20 21 23 23 24 25 26 27
17 19 18 15 11 12 15 19 21 19 18 18 18 17 15 15 15 16 16 17 16 15 16 20 20 18 15 20 20 21 21 20 19 18 18 16 14 13 13 12 10 9 10 13 nan nan nan nan 18 18 nan nan nan 16 14 14 16 17 16 13 13 15 18 18 17 18 19 19 19 20 20 19 20 24 27 26 27 25 26 26 23 22 23 24 24
12 12 13 13 12 13 16 19 21 18 15 15 15 14 11 12 14 16 16 17 16 17 19 19 18 14 15 20 18 17 17 17 17 16 14 13 12 12 13 13 11 10 11 13 nan nan nan nan 16 18 17 nan 17 15 15 15 16 16 15 12 13 17 18 19 17 17 16 17 18 19 19 18 18 19 20 26 26 25 24 25 24 25 25 29 24
11 11 14 16 16 16 17 19 20 16 14 14 13 15 12 13 15 16 16 17 18 19 20 20 20 15 15 13 11 10 11 13 12 11 11 11 11 11 11 11 10 10 11 12 14 nan nan nan 16 18 15 16 nan 14 14 15 16 14 13 13 14 19 17 17 18 15 14 14 17 17 18 18 18 18 19 19 21 23 23 22 24 27 27 24 19
17 16 16 16 17 18 18 19 18 16 15 14 13 14 13 nan 13 16 17 18 18 18 19 18 18 15 12 9 8 9 10 11 10 9 10 10 11 12 10 10 10 10 11 12 13 14 nan nan nan 16 17 nan nan nan 13 16 15 13 14 13 10 15 15 16 17 14 14 14 15 16 17 17 18 19 20 19 19 19 23 24 25 27 25 21 16
16 17 16 16 18 19 19 19 18 16 16 15 14 14 14 12 13 16 17 18 16 16 15 15 14 13 12 10 10 10 11 11 11 10 10 10 13 12 11 11 11 11 12 13 14 13 14 16 nan 14 14 nan 14 13 14 15 15 13 nan 14 10 12 14 14 14 14 14 15 15 15 16 18 18 19 18 18 18 17 22 25 25 25 23 18 15
13 14 15 16 18 19 18 18 16 15 16 15 14 15 14 14 14 16 17 18 17 16 15 14 13 13 13 12 11 12 11 11 11 10 11 12 13 14 13 13 12 12 13 13 12 12 13 15 15 13 nan nan 12 13 15 16 15 14 16 16 14 14 13 13 14 16 15 15 15 16 16 17 18 17 17 17 17 16 16 18 22 22 21 18 17
10 12 14 15 17 17 18 18 17 16 16 16 17 16 16 17 18 18 19 18 18 18 17 16 14 15 14 14 12 11 11 11 11 10 11 11 12 12 12 13 12 12 13 13 12 12 13 nan nan 14 nan nan 12 16 17 17 16 15 16 16 14 13 13 14 15 16 16 14 15 nan nan 18 17 16 16 16 16 15 15 13 nan nan nan nan 18
10 11 14 15 16 17 17 17 18 17 17 17 17 17 17 17 18 19 20 18 17 18 18 17 16 16 14 13 10 9 9 9 9 8 8 8 8 9 11 11 11 11 12 12 12 11 12 nan 15 16 16 14 14 17 19 19 17 15 15 14 13 11 12 12 14 15 14 14 13 14 15 15 16 15 14 15 15 14 13 13 14 14 12 15 19
10 10 13 14 16 17 17 17 17 17 16 16 17 18 17 17 17 17 18 19 18 18 18 17 16 15 13 11 9 8 8 7 7 7 8 6 8 9 10 10 10 11 11 11 11 12 12 14 15 15 16 15 14 15 17 18 16 14 13 12 11 11 13 nan nan nan nan 13 13 15 15 15 16 16 14 13 14 nan 15 14 15 15 14 13 nan
12 10 12 14 15 16 17 18 18 17 15 16 17 16 15 15 15 16 18 19 20 19 19 18 15 13 12 10 9 7 8 7 6 7 8 7 8 8 9 9 10 12 13 14 14 14 14 15 15 17 14 15 13 12 13 16 16 13 15 13 12 15 15 17 18 18 nan nan nan nan 16 16 17 16 16 16 16 17 nan nan nan nan nan nan nan
12 11 12 14 15 16 17 18 17 17 15 16 16 15 14 14 15 16 19 21 22 22 20 17 15 14 13 11 11 10 8 7 7 7 6 6 9 10 11 11 11 12 14 15 15 15 14 15 15 17 16 15 15 14 14 15 15 15 16 16 nan nan nan nan 18 19 nan nan nan nan nan nan nan nan 17 18 18 17 nan nan nan nan nan nan nan
12 12 12 13 14 15 17 17 16 15 14 15 15 16 16 16 18 19 21 21 20 21 21 20 18 17 15 14 13 10 9 8 8 8 9 9 10 11 12 12 12 13 14 14 14 14 14 15 16 17 18 17 14 13 13 12 13 17 16 nan nan nan nan nan nan nan nan nan nan nan nan nan nan 19 18 20 19 nan nan nan nan nan nan nan nan
13 13 12 13 13 16 17 16 16 15 15 16 17 18 20 20 21 22 22 24 23 22 22 21 19 17 17 16 14 12 10 10 10 11 11 12 13 13 13 13 14 15 15 15 14 13 13 14 15 16 15 17 15 15 13 14 12 13 16 nan nan nan nan nan nan nan nan nan nan nan nan nan nan nan 20 20 nan nan nan nan nan nan nan nan nan
14 14 13 14 15 16 17 17 17 16 16 17 18 19 19 21 21 21 21 21 21 21 18 17 17 16 16 16 16 13 12 13 13 13 13 14 15 14 14 15 15 15 15 15 15 15 14 14 12 14 15 13 16 17 16 15 15 15 nan nan nan nan nan nan nan nan nan nan nan nan nan nan nan nan nan nan nan nan nan nan nan nan nan nan nan
15 16 15 16 16 16 17 17 17 17 18 18 17 19 20 19 19 19 19 19 20 17 18 19 18 19 18 16 15 15 14 14 15 15 14 14 15 14 14 14 15 15 15 15 14 13 13 13 14 15 16 17 16 17 17 15 16 15 nan nan nan nan nan nan nan nan nan nan nan nan nan nan nan nan 21 nan nan nan nan nan nan nan nan nan nan
19 19 17 18 17 16 16 17 17 17 17 17 17 17 18 17 18 18 18 19 18 17 17 19 20 19 18 15 14 14 15 15 15 15 14 13 14 13 13 14 14 15 14 12 12 12 13 15 14 14 16 13 13 17 15 14 16 13 15 17 nan nan nan nan nan nan nan nan nan nan nan nan 24 nan nan nan nan nan nan nan nan nan nan nan nan
21 20 19 18 17 16 16 17 17 16 16 16 17 16 16 16 17 18 19 18 19 19 18 20 22 21 18 15 15 16 17 17 16 15 13 12 11 11 11 12 13 13 12 13 12 11 11 13 12 12 12 12 11 13 15 12 14 17 18 nan nan nan nan nan nan nan nan nan nan nan nan nan nan nan nan nan nan nan nan nan nan nan nan nan nan
21 21 20 19 17 16 16 16 16 15 14 14 15 16 17 18 19 19 21 20 20 20 19 20 22 21 18 17 17 18 18 18 16 14 12 11 11 12 11 10 10 12 12 12 12 10 9 9 9 10 10 11 11 12 11 15 17 18 nan 16 19 nan nan nan nan nan nan nan nan nan nan nan nan nan nan nan nan nan nan nan nan nan nan nan nan
21 21 19 18 16 16 16 16 15 14 13 14 15 17 18 18 19 20 20 19 17 18 18 18 20 20 20 19 18 nan nan nan nan 13 12 11 10 10 11 10 10 10 12 12 12 10 8 8 10 11 10 11 11 12 14 14 14 17 17 16 17 nan nan nan nan nan nan nan nan nan nan nan nan nan nan nan nan nan nan nan nan nan nan nan nan
Wind_Direction
286 287 285 292 298 301 302 302 302 302 302 304 304 303 302 299 299 300 302 303 305 304 304 304 304 307 309 312 313 313 314 316 317 318 319 318 316 314 313 312 313 316 316 314 313 310 311 313 309 304 302 299 300 301 297 296 296 296 298 298 294 290 285 277 nan nan nan nan 269 262 262 259 256 255 255 252 248 245 242 241 234 230 222 250 254
292 285 284 289 297 299 301 301 301 301 300 302 303 302 298 297 298 298 300 302 302 302 301 301 303 305 308 310 311 312 315 317 317 317 316 314 312 310 307 310 311 312 314 315 313 314 313 308 306 304 301 301 302 301 299 297 298 300 301 297 295 292 287 nan nan nan nan 268 252 262 265 260 255 254 254 253 249 244 242 241 237 225 236 240 251
283 283 284 290 296 297 299 299 300 300 299 301 303 302 297 296 300 299 297 297 297 297 297 297 300 304 306 308 310 313 315 317 316 314 314 312 311 309 306 306 309 312 312 312 312 312 311 311 310 308 304 304 303 301 300 301 301 302 301 300 298 293 287 281 277 271 260 248 239 226 227 259 264 256 254 251 249 242 239 239 237 241 236 256 265
286 284 286 292 296 296 297 297 299 298 298 302 303 301 298 295 299 299 298 299 298 298 296 295 298 302 304 306 309 313 316 317 315 314 313 310 306 305 305 308 310 311 311 313 314 315 317 314 311 309 307 306 305 303 304 305 305 305 301 299 296 293 289 284 277 269 255 248 239 230 230 nan 247 257 256 256 253 247 239 237 232 233 234 241 248
288 288 287 288 290 293 295 296 297 296 297 302 301 299 297 295 297 298 299 299 298 299 297 296 297 301 304 306 309 312 315 317 317 314 311 308 305 305 305 305 307 311 314 314 316 316 315 312 309 309 310 308 306 306 308 308 308 304 298 298 297 295 289 284 280 266 252 248 241 nan nan nan nan 257 260 255 252 246 241 238 232 232 234 237 240
290 287 285 285 286 290 293 294 295 295 298 301 299 296 295 292 294 296 297 297 297 295 294 294 298 301 303 306 308 312 313 313 312 310 308 307 304 304 303 303 305 308 312 317 318 318 316 314 312 311 309 306 305 306 309 310 310 309 299 293 296 296 293 283 272 256 254 248 245 nan nan nan nan nan 261 258 253 252 249 246 242 244 241 237 238
287 284 283 284 284 289 292 293 294 295 298 300 298 294 292 290 294 296 296 296 295 295 295 296 298 301 302 304 306 308 309 311 311 309 307 306 304 302 302 302 302 307 313 317 318 318 317 315 315 313 310 308 306 306 309 311 310 309 306 299 291 295 295 284 268 259 255 nan nan nan nan nan nan nan nan 271 268 257 251 246 243 239 241 242 239
279 280 281 282 283 290 291 291 292 295 298 298 296 292 290 289 291 292 293 295 295 295 296 296 295 299 300 304 306 309 311 312 313 311 308 307 303 299 299 301 303 307 312 316 319 320 318 316 313 311 310 309 306 305 308 309 309 309 309 304 294 296 296 287 273 269 264 nan nan nan nan nan 242 246 264 261 258 256 nan nan 247 244 245 245 245
277 277 278 279 284 290 288 289 291 294 296 296 295 292 289 288 288 291 293 293 295 297 298 296 298 299 299 303 304 308 311 314 315 311 306 304 301 298 298 299 301 305 309 314 317 319 318 316 315 310 308 306 304 302 303 304 302 304 306 306 302 299 298 291 280 268 nan nan nan nan nan nan nan nan nan nan nan 254 243 233 238 248 249 249 250
275 274 275 277 282 288 288 290 291 294 295 294 293 292 290 288 289 292 293 293 294 295 297 294 296 298 299 301 300 303 306 306 307 304 301 296 298 298 298 298 298 301 307 313 315 315 315 316 313 309 307 305 302 300 300 300 303 305 313 312 307 302 298 292 285 277 nan nan nan nan 261 261 nan nan 269 nan nan nan nan nan 251 245 245 249 252
275 275 274 278 283 287 289 291 292 294 294 291 291 291 290 289 290 292 293 293 293 294 293 294 296 297 301 302 299 297 298 301 303 300 292 290 289 296 300 298 299 301 302 308 312 313 315 316 312 310 311 308 303 301 299 301 303 305 310 313 309 301 296 290 280 nan 262 nan nan 242 265 265 nan nan 272 274 277 274 268 nan nan nan nan nan 255
274 275 274 276 285 286 289 290 292 294 292 289 289 290 289 289 290 290 293 293 292 293 289 291 294 297 301 300 296 299 301 300 300 298 294 292 292 295 299 301 302 302 302 304 307 310 312 313 310 310 309 305 301 297 297 300 301 302 305 307 305 298 294 287 272 264 260 263 273 nan nan 253 268 284 284 281 277 278 276 272 264 261 261 255 255
272 272 274 276 280 286 288 290 291 291 290 288 290 289 289 290 291 293 293 291 291 290 290 293 296 299 299 297 297 299 301 300 300 298 296 293 293 296 300 304 305 303 302 303 304 306 307 308 305 302 302 299 296 294 296 299 302 304 303 303 301 297 294 287 265 257 251 255 nan nan nan nan 277 275 272 nan nan 277 273 270 265 261 258 254 253
270 272 273 275 279 286 288 290 289 288 287 287 288 288 289 290 291 292 291 290 290 290 291 295 296 299 298 296 295 296 297 298 297 297 296 295 295 295 299 304 304 301 299 300 302 303 303 299 296 293 290 288 287 287 294 296 303 305 303 302 300 297 294 285 273 253 246 247 253 nan nan 253 263 285 289 285 281 274 nan nan nan nan nan nan nan
270 271 272 274 278 281 287 287 286 285 285 286 286 286 287 288 290 291 291 291 290 291 293 295 298 297 295 296 295 295 296 295 296 298 297 295 294 296 300 303 302 298 295 295 297 298 297 294 290 286 285 285 282 281 283 289 300 305 303 301 299 296 292 276 266 251 242 237 239 nan nan 251 282 281 274 272 274 nan nan nan nan nan nan nan nan
271 273 273 273 276 279 279 284 284 283 284 284 284 286 288 290 291 292 292 292 293 294 295 297 298 298 296 293 294 295 296 296 297 297 295 296 295 297 298 300 299 296 292 288 289 292 292 291 287 281 279 282 280 277 279 284 292 302 301 297 295 294 290 279 266 254 243 238 242 246 252 257 273 271 272 274 276 268 269 nan nan nan nan nan nan
275 276 274 274 275 274 275 276 281 285 282 283 286 288 291 293 294 294 294 294 295 294 294 295 295 295 294 293 294 296 297 297 297 297 297 295 295 296 295 293 292 289 290 288 285 285 287 292 291 285 280 281 279 275 277 281 289 299 298 294 293 292 291 281 267 261 249 246 237 238 247 244 273 272 271 266 265 273 272 269 nan 267 nan nan nan
278 277 275 272 271 270 271 274 276 273 275 284 290 292 295 296 296 296 296 295 293 292 292 291 291 294 292 290 292 295 297 298 299 298 297 293 294 297 294 289 286 287 290 290 287 283 284 293 297 291 282 279 277 273 273 275 287 295 294 293 292 291 290 280 268 264 260 247 239 237 242 260 262 266 267 271 271 264 264 265 267 nan nan nan nan
279 278 273 269 266 264 265 267 267 269 275 278 284 292 297 298 298 298 296 294 291 289 288 285 288 292 291 288 289 294 297 298 299 297 295 293 294 298 295 289 288 289 290 290 287 282 284 294 298 291 280 277 273 267 266 269 287 294 293 293 293 291 288 271 266 263 255 245 238 242 251 259 258 266 269 270 270 269 264 258 256 nan nan nan nan
278 276 272 265 262 260 261 262 265 269 273 279 285 291 298 299 301 299 297 294 293 290 288 286 288 294 290 285 284 286 293 294 296 294 296 294 293 294 294 291 289 290 292 290 286 282 285 294 295 287 278 275 266 262 264 267 282 294 293 293 294 286 267 262 261 258 257 253 244 248 263 265 262 259 260 263 265 260 259 261 260 257 257 nan nan
277 276 271 268 265 264 265 264 267 271 275 280 285 292 298 301 300 299 297 296 294 291 288 287 290 293 284 279 274 277 282 284 285 284 290 287 287 289 289 290 289 290 289 288 287 284 287 292 290 283 277 274 262 254 262 268 278 292 291 293 284 267 267 260 257 255 252 246 249 251 266 261 262 258 258 260 262 263 263 264 265 266 262 258 256
282 278 274 271 270 271 275 273 271 275 277 280 286 291 295 296 293 294 293 294 293 290 284 279 282 276 282 271 266 276 281 279 278 280 282 289 289 288 286 286 288 284 279 281 285 285 289 290 284 280 280 278 262 249 253 265 279 286 289 282 267 267 264 263 256 251 246 241 243 251 263 260 258 257 257 260 261 264 263 261 264 265 263 259 257
285 282 281 282 281 280 278 275 275 277 281 284 288 292 292 292 294 294 292 291 288 283 277 277 270 271 267 269 272 272 273 272 275 280 284 290 287 287 286 287 287 280 274 278 277 277 285 284 279 280 282 279 260 247 254 251 264 279 272 263 262 261 260 260 255 245 243 241 234 255 258 257 257 257 258 257 260 261 264 265 263 263 263 261 259
289 286 289 282 279 275 275 275 278 278 278 281 284 289 292 294 292 290 288 285 280 278 277 276 274 272 270 268 270 276 275 275 285 287 282 277 281 285 288 287 282 275 270 267 268 274 275 271 273 275 nan 269 258 249 248 248 248 246 250 251 251 253 252 253 254 249 240 239 230 256 250 250 255 255 257 260 261 260 260 260 259 259 260 261 262
301 294 294 290 282 278 276 275 274 273 276 280 285 289 291 290 289 287 284 281 281 279 277 274 273 272 269 269 273 275 274 271 269 269 272 274 273 272 270 271 266 259 261 263 266 nan nan nan nan nan nan nan 264 255 251 251 248 247 246 246 244 244 244 240 247 250 240 232 234 243 243 245 253 253 256 260 260 259 257 257 258 257 258 nan nan
300 304 304 298 291 280 278 276 276 276 279 283 287 292 293 291 290 287 283 279 278 275 272 272 272 271 270 273 272 273 271 272 272 273 275 277 274 272 273 272 259 254 261 264 264 264 261 263 nan nan nan nan nan 258 251 256 256 252 248 245 244 243 241 236 239 245 239 229 225 236 235 248 236 247 254 256 259 259 259 259 260 260 260 260 261
294 289 289 287 290 282 278 281 284 285 287 287 289 290 291 290 289 288 285 281 276 273 273 273 272 272 274 274 274 271 271 273 277 279 279 276 273 274 278 269 255 254 263 263 257 255 257 264 nan nan nan nan nan 260 254 255 260 259 254 250 248 247 244 240 236 236 235 233 233 237 240 239 242 252 251 255 258 260 260 261 262 263 264 265 266
277 287 286 278 286 292 291 293 293 293 290 291 290 291 289 291 290 288 284 282 276 272 272 274 275 276 275 273 272 272 275 276 278 280 280 276 275 277 276 270 259 257 259 255 253 249 256 264 nan nan nan nan nan nan 262 264 267 265 261 256 252 248 247 243 237 233 235 236 234 236 238 241 245 251 252 255 258 257 257 257 263 264 263 263 262
279 287 292 285 290 294 296 293 290 289 284 286 289 287 291 290 286 285 283 281 272 269 269 271 275 274 268 268 272 276 274 275 278 281 281 277 276 276 276 269 260 251 247 240 250 262 263 268 nan nan nan nan nan nan nan 266 269 265 265 259 253 251 249 243 239 238 237 237 236 238 240 241 248 254 257 258 252 253 257 258 261 264 263 263 263
285 287 297 291 292 291 294 294 292 290 286 284 283 282 285 288 289 286 281 277 261 259 272 271 270 269 267 268 271 274 275 277 279 282 283 277 271 270 266 255 247 239 242 252 248 265 nan nan nan nan nan nan nan 275 275 nan nan 260 258 257 254 252 248 246 243 241 239 237 237 239 244 244 249 256 255 252 252 248 255 268 264 265 265 266 265
282 281 289 283 280 286 294 300 299 300 295 289 284 277 274 282 286 280 278 281 281 275 272 273 270 270 270 274 275 276 278 278 279 280 276 272 266 262 250 236 235 235 244 254 255 nan nan 262 nan nan nan nan nan 269 273 nan nan 257 255 259 258 254 249 246 247 247 245 243 243 244 243 247 251 250 248 255 255 251 253 266 269 269 268 268 267
278 273 273 273 277 288 300 310 314 313 305 292 283 275 273 281 285 281 285 286 282 278 265 255 264 260 268 274 276 278 281 280 278 274 270 262 256 248 238 232 233 238 249 258 260 nan nan nan nan nan nan nan nan 265 262 274 266 258 260 261 260 258 254 252 253 253 250 247 247 244 243 241 243 247 246 243 248 256 255 268 272 271 270 270 269
256 259 265 279 289 293 306 316 321 325 311 293 274 261 265 271 279 283 284 283 279 278 268 258 257 272 269 277 276 279 279 280 274 271 265 256 249 242 236 235 236 247 251 257 nan nan nan nan 264 271 nan nan nan 266 265 262 263 263 265 264 262 264 258 256 251 249 251 249 245 242 239 237 237 239 239 240 241 241 246 243 252 265 269 270 269
268 268 280 303 306 304 306 307 318 325 312 292 294 286 272 269 272 276 279 276 272 275 276 277 271 267 279 276 272 265 263 264 267 256 254 251 249 247 244 239 242 252 254 254 nan nan nan nan 274 274 275 nan 272 268 270 261 256 262 263 265 266 261 256 252 244 251 249 248 243 238 237 233 236 237 239 240 243 243 244 251 252 255 258 252 252
302 308 315 317 318 311 303 300 314 314 306 295 293 284 285 280 275 275 275 271 269 272 271 270 268 268 269 273 265 254 251 257 254 256 251 250 258 258 249 248 253 255 251 247 257 nan nan nan 274 275 273 275 nan 258 255 254 258 262 251 244 262 265 258 259 255 250 250 247 239 235 236 236 236 238 239 240 242 247 251 254 255 260 257 255 261
324 325 318 311 311 308 304 300 306 304 293 292 285 288 289 nan 276 275 271 270 270 268 266 263 255 248 251 261 264 256 253 255 252 250 251 255 263 263 257 258 262 257 251 249 251 258 nan nan nan 274 280 nan nan nan 240 244 243 251 250 252 225 252 256 251 251 247 246 241 235 234 235 237 238 239 242 242 242 245 256 258 261 265 273 276 268
320 320 315 305 297 305 306 300 303 298 289 285 282 282 285 282 275 270 271 269 268 262 253 246 240 240 249 265 265 259 256 254 252 248 253 260 263 263 266 267 260 255 251 248 249 255 263 261 nan 256 271 nan 275 259 241 238 239 238 nan 246 241 243 248 249 247 243 239 236 230 229 231 233 237 240 242 244 245 247 251 254 258 261 270 277 279
311 309 306 303 297 298 297 298 298 288 282 282 281 279 276 267 260 263 264 261 257 253 249 243 238 243 255 262 257 254 255 254 253 254 256 259 260 265 268 268 262 254 253 249 246 246 254 263 261 254 nan nan 274 259 244 240 242 239 236 239 229 236 238 238 239 236 233 233 231 232 234 236 238 239 243 246 247 249 250 248 253 259 260 260 257
297 298 293 292 289 291 289 299 299 291 283 280 279 272 265 252 247 251 253 252 249 247 250 248 248 252 256 255 248 248 251 254 257 256 259 257 256 264 265 265 263 257 251 244 244 246 250 nan nan 261 nan nan 268 254 248 245 246 241 234 228 228 230 232 232 234 233 232 236 242 nan nan 240 241 241 243 245 247 248 248 246 nan nan nan nan 253
291 286 286 287 288 289 288 288 294 292 286 284 283 278 268 261 254 248 249 252 252 254 250 253 253 253 251 248 244 244 249 249 243 241 240 248 255 260 260 265 261 253 249 247 245 254 264 nan 262 267 262 253 248 256 253 249 242 243 243 229 219 228 238 237 235 233 232 237 241 241 244 244 243 242 241 243 245 248 250 247 251 249 250 249 246
294 288 283 288 291 292 292 292 288 287 285 285 286 285 279 270 259 257 254 253 255 254 254 251 248 246 247 245 246 248 245 242 231 231 231 240 240 250 256 260 255 251 252 254 256 258 257 260 259 256 267 264 251 252 251 247 249 246 248 247 231 225 239 nan nan nan nan 233 239 241 244 245 244 246 247 250 252 nan 252 249 252 255 251 256 nan
309 295 287 287 292 292 294 286 282 283 282 285 287 290 290 285 272 265 253 254 256 254 248 244 244 241 244 247 250 244 240 239 239 235 230 232 246 254 259 259 255 248 251 255 258 260 261 260 260 253 235 258 252 256 257 249 232 261 271 254 239 235 235 239 237 229 nan nan nan nan 246 247 250 252 253 254 255 256 nan nan nan nan nan nan nan
303 295 278 283 290 292 288 283 280 283 282 286 289 291 285 275 266 255 251 244 238 242 246 244 241 240 240 241 235 229 219 221 228 242 251 234 246 255 258 256 253 256 257 261 261 264 265 267 267 269 260 233 249 240 239 233 256 257 254 257 nan nan nan nan 234 229 nan nan nan nan nan nan nan nan 252 255 258 257 nan nan nan nan nan nan nan
298 290 285 289 289 288 284 281 280 282 285 289 285 277 276 266 256 254 245 242 244 242 240 241 240 239 237 231 230 218 211 214 231 244 249 253 257 260 262 267 263 260 264 266 266 268 266 263 259 265 269 268 254 249 235 246 264 275 256 nan nan nan nan nan nan nan nan nan nan nan nan nan nan 255 255 258 259 nan nan nan nan nan nan nan nan
304 299 296 290 283 287 282 281 280 283 283 286 284 281 274 263 258 251 248 242 237 238 239 234 238 239 237 230 225 226 227 232 243 253 259 265 263 264 268 268 268 264 265 269 269 273 272 267 266 268 275 277 268 253 240 250 266 240 274 nan nan nan nan nan nan nan nan nan nan nan nan nan nan nan 260 261 nan nan nan nan nan nan nan nan nan
301 301 298 290 283 282 282 277 274 275 281 281 282 281 278 275 269 265 259 249 249 248 244 244 242 241 236 224 223 230 238 242 247 252 257 261 266 266 266 268 266 265 266 267 266 265 271 272 272 270 269 255 268 264 258 245 249 249 nan nan nan nan nan nan nan nan nan nan nan nan nan nan nan nan nan nan nan nan nan nan nan nan nan nan nan
294 293 293 290 282 278 279 278 276 273 273 276 279 278 275 273 273 271 266 263 259 238 234 236 240 231 230 231 231 234 242 250 249 250 254 254 259 264 270 267 263 265 263 264 269 274 273 269 263 264 259 256 260 263 274 271 259 253 nan nan nan nan nan nan nan nan nan nan nan nan nan nan nan nan 264 nan nan nan nan nan nan nan nan nan nan
289 288 286 286 286 281 280 278 272 272 272 276 278 283 284 279 272 265 263 261 258 253 245 238 226 224 225 230 237 237 243 250 253 254 253 253 257 258 260 262 263 261 263 266 271 267 263 255 260 261 268 269 267 267 270 276 283 271 249 247 nan nan nan nan nan nan nan nan nan nan nan nan 261 nan nan nan nan nan nan nan nan nan nan nan nan
288 287 287 285 276 271 270 268 271 273 274 278 281 283 286 286 280 272 264 254 253 252 246 229 223 219 227 230 242 242 242 243 246 253 254 256 254 254 254 257 262 263 268 263 263 270 276 274 275 274 278 274 270 271 274 282 272 259 252 nan nan nan nan nan nan nan nan nan nan nan nan nan nan nan nan nan nan nan nan nan nan nan nan nan nan
284 284 279 274 271 267 268 271 273 273 275 277 279 278 279 279 278 273 272 263 255 248 244 235 223 223 237 247 252 249 244 245 240 242 246 248 255 251 250 255 258 263 263 265 264 265 266 275 284 283 278 277 268 274 280 263 259 268 nan 270 265 nan nan nan nan nan nan nan nan nan nan nan nan nan nan nan nan nan nan nan nan nan nan nan nan
283 283 274 272 271 268 267 272 271 270 273 275 274 276 276 278 277 275 274 271 261 257 247 236 233 236 249 251 249 nan nan nan nan 230 234 238 247 253 252 250 252 259 263 267 268 268 267 271 272 272 278 281 278 279 268 277 277 275 283 285 282 nan nan nan nan nan nan nan nan nan nan nan nan nan nan nan nan nan nan nan nan nan nan nan nan